Location: Home
(42.5358°N, 72.7383°W)
Time: 14:53:53
(UTC-05:00)

Vanguard 1 - Pass Details

Date: 06 December 2021
Orbit: 652 x 3830 km, 34.2° (Epoch: 19 January)

Event Time Altitude Azimuth Distance (km) Brightness Sun altitude
Rises 05:22:59 0° 283° (WNW) 7,914 - -18.4°
Reaches altitude 10° 05:29:26 10° 276° (W) 6,683 - -17.3°
Exits shadow 05:33:28 17° 270° (W) 5,907 13.4 -16.5°
Maximum altitude 05:46:18 34° 223° (SW) 3,927 12.9 -14.3°
Drops below altitude 10° 05:57:25 10° 164° (SSE) 4,381 13.9 -12.3°
Sets 06:00:39 0° 154° (SSE) 4,988 14.4 -11.8°
